This is the latest recevied weather packets stored in our database for station/object PY2TED-10. If no packets are shown the sender has not sent any weather packets the latest 10 day(s).
| Time | Temp. | Humidity | Pressure | Rain* | Wind** | Luminosity | Snow |
|---|---|---|---|---|---|---|---|
| 1777796527 | 21.67° C | 58% | 994.7 hPa | 0 mm | - | - | - |
| 1777795926 | 21.67° C | 58% | 994.6 hPa | 0 mm | - | - | - |
| 1777795326 | 21.11° C | 58% | 994.5 hPa | 0 mm | - | - | - |
| 1777787468 | 23.33° C | 55% | 994.1 hPa | 0 mm | - | - | - |
| 1777786868 | 23.89° C | 55% | 994.5 hPa | 0 mm | - | - | - |
| 1777786268 | 23.89° C | 55% | 994.7 hPa | 0 mm | - | - | - |
| 1777785668 | 23.89° C | 55% | 994.8 hPa | 0 mm | - | - | - |
| 1777785068 | 23.89° C | 55% | 995.2 hPa | 0 mm | - | - | - |
| 1777784473 | 23.89° C | 54% | 995.4 hPa | 0 mm | - | - | - |
| 1777784468 | 23.89° C | 54% | 995.5 hPa | 0 mm | - | - | - |
| 1777783868 | 23.89° C | 54% | 995.6 hPa | 0 mm | - | - | - |
| 1777783273 | 24.44° C | 54% | 995.9 hPa | 0 mm | - | - | - |
| 1777783268 | 23.89° C | 54% | 995.8 hPa | 0 mm | - | - | - |
| 1777782668 | 24.44° C | 54% | 996.1 hPa | 0 mm | - | - | - |
| 1777782068 | 24.44° C | 53% | 996.2 hPa | 0 mm | - | - | - |
| 1777781468 | 24.44° C | 53% | 996.1 hPa | 0 mm | - | - | - |
| 1777780868 | 24.44° C | 53% | 996.3 hPa | 0 mm | - | - | - |
| 1777780268 | 24.44° C | 53% | 996.3 hPa | 0 mm | - | - | - |
| 1777779668 | 25° C | 52% | 996.4 hPa | 0 mm | - | - | - |
| 1777779068 | 25° C | 52% | 996.5 hPa | 0 mm | - | - | - |
| 1777778468 | 25° C | 52% | 996.9 hPa | 0 mm | - | - | - |
| 1777777868 | 25° C | 52% | 997 hPa | 0 mm | - | - | - |
| 1777777268 | 25° C | 51% | 997.1 hPa | 0 mm | - | - | - |
| 1777776668 | 25.56° C | 51% | 997.2 hPa | 0 mm | - | - | - |
| 1777776068 | 25° C | 51% | 997.2 hPa | 0 mm | - | - | - |
* Rain latest hour (hover to see other rain measurements)
** Current wind speed in m/s (hover to see current wind gust speed)